This is the latest recevied weather packets stored in our database for station/object SQ9SMC-13. If no packets are shown the sender has not sent any weather packets the latest 10 day(s).
| Time | Temp. | Humidity | Pressure | Rain* | Wind** | Luminosity | Snow |
|---|---|---|---|---|---|---|---|
| 1777393203 | 11.11° C | 32% | 1024.8 hPa | 0 mm | - | 58 W/m² | - |
| 1777392903 | 12.22° C | 31% | 1024.9 hPa | 0 mm | - | 62 W/m² | - |
| 1777392605 | 11.67° C | 31% | 1024.8 hPa | 0 mm | - | 98 W/m² | - |
| 1777392304 | 12.22° C | 30% | 1024.8 hPa | 0 mm | - | 104 W/m² | - |
| 1777392004 | 11.67° C | 30% | 1024.9 hPa | 0 mm | - | 124 W/m² | - |
| 1777391710 | 12.22° C | 31% | 1024.7 hPa | 0 mm | - | 138 W/m² | - |
| 1777391404 | 12.78° C | 31% | 1025 hPa | 0 mm | - | 148 W/m² | - |
| 1777391102 | 12.22° C | 30% | 1024.9 hPa | 0 mm | - | 158 W/m² | - |
| 1777390804 | 12.22° C | 29% | 1024.8 hPa | 0 mm | - | 166 W/m² | - |
| 1777390504 | 12.22° C | 30% | 1024.9 hPa | 0 mm | - | 178 W/m² | - |
| 1777390204 | 12.78° C | 29% | 1025.1 hPa | 0 mm | - | 189 W/m² | - |
| 1777389904 | 11.67° C | 29% | 1025.1 hPa | 0 mm | - | 200 W/m² | - |
| 1777389604 | 12.22° C | 28% | 1025.1 hPa | 0 mm | - | 213 W/m² | - |
| 1777389304 | 12.22° C | 28% | 1025.2 hPa | 0 mm | - | 226 W/m² | - |
| 1777389004 | 12.22° C | 27% | 1025 hPa | 0 mm | - | 240 W/m² | - |
| 1777388703 | 12.78° C | 28% | 1025.2 hPa | 0 mm | - | 253 W/m² | - |
| 1777388404 | 13.33° C | 27% | 1025.1 hPa | 0 mm | - | 266 W/m² | - |
| 1777388103 | 12.78° C | 28% | 1025.2 hPa | 0 mm | - | 276 W/m² | - |
| 1777387805 | 13.33° C | 28% | 1025.2 hPa | 0 mm | - | 290 W/m² | - |
| 1777387503 | 12.78° C | 28% | 1025.1 hPa | 0 mm | - | 302 W/m² | - |
| 1777387203 | 12.78° C | 29% | 1025.1 hPa | 0 mm | - | 316 W/m² | - |
| 1777386903 | 12.78° C | 29% | 1025 hPa | 0 mm | - | 328 W/m² | - |
| 1777386603 | 12.78° C | 28% | 1025.3 hPa | 0 mm | - | 339 W/m² | - |
| 1777386303 | 12.78° C | 28% | 1024.9 hPa | 0 mm | - | 351 W/m² | - |
| 1777386003 | 13.33° C | 28% | 1025.3 hPa | 0 mm | - | 363 W/m² | - |
* Rain latest hour (hover to see other rain measurements)
** Current wind speed in m/s (hover to see current wind gust speed)